CAS-6 (TIANQIN 1) (44881 NORAD) Tracking and Keplerian Element Data

This shows tracking and keplerian element data for the satellite.

Feedback or suggestion? Click here.




ElementValue
Catalog44881
NameCAS-6 (TIANQIN 1)
Epoch Orbit15798
Epoch Day325.17139793
Epoch Year2022
RAAN42.0522
Inclination97.8817
Eccentricity0.0015894
Argument of Perigee40.3342
Mean Anonmoly319.9008
Mean Motion14.81937413
Decay Rate5.87E-06
L11 44881U 19093C 22325.17139793 .00000587 00000+0 80591-4 0 9997
L22 44881 97.8817 42.0522 0015894 40.3342 319.9008 14.81937413157986



Live tracking and technical data element details for CAS-6 (TIANQIN 1) (NORAD 44881). CAS-6 (TIANQIN 1) can be tracked NOW for your location showing map with azimuth and elevation plus other details from your city location.







IsCatalogInMostPopularTable: catalog: 44881, numindb: 158
Update: records affected: 1



GetName: 44881 CAS-6 (TIANQIN 1)

Hit Count: updated at: Mon, 28 Nov 2022 04:09:17 GMT